Home > Weather > Kathmandu > Past weeks

Flag for Nepal Past Weather in Kathmandu, Nepal — Yesterday and Last 2 Weeks

Now
68 °F

Rain. Partly cloudy.


Feels Like: 68 °F
Forecast: 64 / 75 °F
Wind: No wind

Location: Kathmandu Airport

Current Time: Jul 29, 2016 at 6:02:04 AM

Latest Report: Jul 29, 2016 at 5:35 AM


Visibility: 4 mi

Pressure: 29.89 "Hg (25.67 "Hg at 1305m altitude)

Humidity: 100%

Dew Point: 68 °F

Location of KathmanduLocation

Past Weather in Kathmandu — Graph

°F

Kathmandu Temperature Yesterday

Maximum temperature yesterday: 79 °F (at 12:35 PM)
Minimum temperature yesterday: 68 °F (at 5:35 AM)
Average temperature yesterday: 72 °F

High & Low Weather Summary for the Past Weeks

 TemperatureHumidityPressure
High82 °F (Jul 14, 12:35 PM)100% (Jul 14, 6:05 AM)30.04 "Hg (Jul 14, 6:05 AM)
Low66 °F (Jul 26, 4:35 AM)62% (Jul 23, 11:35 AM)29.71 "Hg (Jul 14, 3:05 PM)
Average73 °F89%29.87 "Hg
* Reported Jul 14 4:35 AM — Jul 29 4:35 AM, Kathmandu, Weather by CustomWeather, © 2016

Note: Actual official high and low records may vary slightly from our data, if they occured in-between our weather recording intervals... More about our weather records

Advertising

Kathmandu Weather History for the Previous 24 Hours

Scroll right to see more
 ConditionsComfort  
Time TempWeatherWind HumidityBarometerVisibility
4:35 AM
Fri, Jul 29
68 °FLight rain. Partly cloudy.3 mph94%29.89 "Hg4 mi
3:35 AM70 °FRain. Partly cloudy.3 mph94%29.89 "Hg4 mi
2:35 AM70 °FRain. Mostly cloudy.5 mph100%29.89 "Hg4 mi
1:35 AM70 °FLight rain. Mostly cloudy.No wind100%29.89 "Hg4 mi
12:35 AM70 °FLight rain. Mostly cloudy.3 mph100%29.92 "Hg4 mi
12:05 AM70 °FPartly cloudy.No wind100%29.92 "Hg4 mi
11:35 PM
Thu, Jul 28
70 °FPartly cloudy.3 mph100%29.92 "Hg4 mi
11:05 PM72 °FPartly cloudy.2 mph94%29.92 "Hg4 mi
10:35 PM72 °FPartly cloudy.No wind94%29.92 "Hg4 mi
10:05 PM72 °FPartly cloudy.No wind94%29.92 "Hg4 mi
9:35 PM72 °FLight rain. Partly cloudy.2 mph94%29.92 "Hg4 mi
9:05 PM72 °FPartly cloudy.2 mph94%29.92 "Hg4 mi
8:35 PM72 °FPartly cloudy.3 mph94%29.92 "Hg4 mi
8:05 PM72 °FPartly cloudy.2 mph88%29.89 "Hg4 mi
7:35 PM72 °FBroken clouds.2 mph94%29.89 "Hg4 mi
7:05 PM72 °FLight rain. Broken clouds.2 mph94%29.89 "Hg4 mi
6:35 PM72 °FRain. Broken clouds.6 mph88%29.86 "Hg4 mi
6:05 PM75 °FRain. Broken clouds.No wind78%29.86 "Hg4 mi
5:35 PM75 °FRain. Broken clouds.No wind78%29.86 "Hg4 mi
5:05 PM75 °FRain. Broken clouds.2 mph83%29.83 "Hg4 mi
4:35 PM75 °FRain. Broken clouds.3 mph83%29.86 "Hg4 mi
4:05 PM73 °FBroken clouds.5 mph89%29.86 "Hg4 mi
3:35 PM73 °FBroken clouds.7 mph89%29.86 "Hg4 mi
3:05 PM72 °FBroken clouds.7 mph94%29.89 "Hg4 mi
2:35 PM72 °FRain. Broken clouds.5 mph88%29.89 "Hg4 mi
2:05 PM73 °FRain. Broken clouds.2 mph94%29.92 "Hg4 mi
1:05 PM75 °FLight rain. Broken clouds.5 mph78%29.92 "Hg4 mi
12:35 PM79 °FRain. Broken clouds.3 mph74%29.92 "Hg4 mi
12:05 PM77 °FBroken clouds.3 mph79%29.95 "Hg4 mi
11:35 AM75 °FLight rain. Broken clouds.2 mph83%29.95 "Hg4 mi
11:05 AM75 °FLight rain. Broken clouds.2 mph78%29.98 "HgN/A
10:35 AM75 °FLight rain. Broken clouds.2 mph78%29.98 "Hg4 mi
10:05 AM75 °FDrizzle. Broken clouds.2 mph83%29.98 "Hg4 mi
9:35 AM73 °FLight rain. More clouds than sun.No wind83%29.98 "Hg4 mi
9:05 AM73 °FLight rain. Broken clouds.No wind83%29.98 "Hg4 mi
8:35 AM73 °FBroken clouds.No wind83%29.98 "Hg4 mi
8:05 AM72 °FBroken clouds.No wind88%29.98 "Hg4 mi
7:35 AM72 °FBroken clouds.No wind88%29.95 "Hg4 mi
7:05 AM70 °FBroken clouds.No wind94%29.95 "Hg4 mi
6:35 AM70 °FBroken clouds.3 mph94%29.95 "Hg4 mi
6:05 AM70 °FMostly cloudy.No wind94%29.95 "Hg4 mi
Weather by CustomWeather, © 2016

See weather overviewHow to use our weather pages